N2IVN Weather Reports


Display with metric or nautical units.
time (UTC)temp
F
wind
direction
speed
MPH
gust
MPH
rain 1hr
in
rain 24hr
in
rain mn
in
humidity
%
barometer
mb
20260508191505 74 282 0.0 0.0 0.00 0.00 0.00 36 1011.9
20260508191005 75 169 0.0 15.0 0.00 0.00 0.00 35 1011.8
20260508190505 76 248 1.0 7.0 0.00 0.00 0.00 35 1011.8
20260508185505 76 292 0.0 16.0 0.00 0.00 0.00 34 1011.9
20260508185005 78 236 7.0 20.0 0.00 0.00 0.00 33 1011.9
20260508184505 80 197 3.0 10.0 0.00 0.00 0.00 32 1012.1
20260508184006 82 234 2.0 13.0 0.00 0.00 0.00 32 1012.2
20260508183505 83 237 1.0 5.0 0.00 0.00 0.00 31 1012.4
20260508183005 85 234 6.0 18.0 0.00 0.00 0.00 31 1012.3
20260508182505 85 285 0.0 0.0 0.00 0.00 0.00 31 1012.6
20260508182005 84 177 2.0 6.0 0.00 0.00 0.00 31 1012.6
20260508181505 83 29 0.0 2.0 0.00 0.00 0.00 32 1012.5
20260508181005 83 272 1.0 9.0 0.00 0.00 0.00 32 1012.6
20260508180505 83 297 0.0 10.0 0.00 0.00 0.00 32 1012.6
20260508180005 84 209 2.0 14.0 0.00 0.00 0.00 31 1012.6
20260508175005 84 242 0.0 10.0 0.00 0.00 0.00 32 1012.7
20260508174005 85 247 2.0 14.0 0.00 0.00 0.00 31 1012.6
20260508172505 86 207 0.0 0.0 0.00 0.00 0.00 32 1012.6
20260508172005 85 245 0.0 3.0 0.00 0.00 0.00 33 1012.8
20260508171505 85 215 2.0 13.0 0.00 0.00 0.00 33 1013.0
20260508171005 84 185 0.0 0.0 0.00 0.00 0.00 34 1012.8
20260508170506 83 248 0.0 0.0 0.00 0.00 0.00 34 1012.9
20260508170005 83 270 1.0 15.0 0.00 0.00 0.00 33 1013.0
20260508165505 82 336 3.0 14.0 0.00 0.00 0.00 34 1013.1
20260508164505 83 217 5.0 14.0 0.00 0.00 0.00 33 1013.1
20260508163505 81 270 0.0 0.0 0.00 0.00 0.00 36 1013.5
20260508163005 79 248 0.0 12.0 0.00 0.00 0.00 37 1013.4
20260508162505 77 228 1.0 10.0 0.00 0.00 0.00 38 1013.5
20260508162005 77 216 2.0 12.0 0.00 0.00 0.00 38 1013.5
20260508161505 77 254 1.0 5.0 0.00 0.00 0.00 37 1013.5
20260508160005 79 223 2.0 13.0 0.00 0.00 0.00 37 1013.7
20260508155505 79 292 1.0 3.0 0.00 0.00 0.00 37 1013.7
20260508155005 79 284 0.0 6.0 0.00 0.00 0.00 37 1013.6
20260508154504 79 270 0.0 3.0 0.00 0.00 0.00 37 1013.7
20260508154005 78 172 4.0 9.0 0.00 0.00 0.00 37 1013.8
20260508153504 78 248 0.0 2.0 0.00 0.00 0.00 39 1013.8
20260508153005 78 252 0.0 0.0 0.00 0.00 0.00 38 1013.9
20260508152504 78 223 0.0 3.0 0.00 0.00 0.00 39 1013.9
20260508152004 78 315 0.0 0.0 0.00 0.00 0.00 39 1013.9
20260508151004 75 180 0.0 0.0 0.00 0.00 0.00 41 1013.8
20260508150505 74 200 1.0 5.0 0.00 0.00 0.00 41 1013.9
20260508150005 72 203 1.0 9.0 0.00 0.00 0.00 42 1013.9
20260508145504 71 202 0.0 0.0 0.00 0.00 0.00 41 1014.2
20260508144505 72 338 0.0 3.0 0.00 0.00 0.00 40 1014.3
20260508144005 73 0 0.0 3.0 0.00 0.00 0.00 40 1014.5
20260508143505 75 338 0.0 0.0 0.00 0.00 0.00 39 1014.6
20260508143004 76 338 0.0 1.0 0.00 0.00 0.00 37 1014.5
20260508142505 78 338 1.0 9.0 0.00 0.00 0.00 36 1014.6
20260508142004 81 202 1.0 5.0 0.00 0.00 0.00 34 1014.6
20260508141506 83 225 0.0 0.0 0.00 0.00 0.00 35 1014.4
20260508141005 86 225 0.0 0.0 0.00 0.00 0.00 35 1014.3
20260508140505 86 315 0.0 7.0 0.00 0.00 0.00 35 1014.4
20260508135505 80 225 0.0 0.0 0.00 0.00 0.00 41 1014.6
20260508135004 78 203 0.0 5.0 0.00 0.00 0.00 42 1014.5
20260508134505 76 180 0.0 0.0 0.00 0.00 0.00 44 1014.7
20260508133005 70 352 0.0 0.0 0.00 0.00 0.00 47 1014.8
20260508132004 69 338 0.0 0.0 0.00 0.00 0.00 48 1014.7
20260508131505 70 0 0.0 0.0 0.00 0.00 0.00 47 1014.8
20260508131005 72 0 0.0 2.0 0.00 0.00 0.00 45 1014.9
20260508130505 74 338 0.0 0.0 0.00 0.00 0.00 43 1014.7
20260508125505 78 338 1.0 2.0 0.00 0.00 0.00 42 1014.5
20260508125005 77 352 0.0 0.0 0.00 0.00 0.00 45 1014.6
20260508124005 75 0 0.0 0.0 0.00 0.00 0.00 45 1014.7
20260508123505 77 0 0.0 3.0 0.00 0.00 0.00 44 1014.7
20260508123005 75 0 0.0 0.0 0.00 0.00 0.00 49 1014.7
20260508122004 72 0 0.0 0.0 0.00 0.00 0.00 49 1014.5
20260508121505 76 0 0.0 0.0 0.00 0.00 0.00 45 1014.4
20260508121005 80 0 0.0 0.0 0.00 0.00 0.00 45 1014.4
20260508120004 77 0 0.0 0.0 0.00 0.00 0.00 50 1014.1
20260508115506 74 0 0.0 0.0 0.00 0.00 0.00 53 1014.2
20260508115005 70 0 0.0 0.0 0.00 0.00 0.00 56 1014.3
20260508114504 70 0 0.0 0.0 0.00 0.00 0.00 55 1014.2
20260508114005 73 0 0.0 0.0 0.00 0.00 0.00 54 1014.1
20260508113505 75 0 0.0 0.0 0.00 0.00 0.00 56 1014.2
20260508113006 73 0 0.0 0.0 0.00 0.00 0.00 60 1014.0
20260508112505 68 0 0.0 0.0 0.00 0.00 0.00 68 1014.1
20260508112004 62 0 0.0 0.0 0.00 0.00 0.00 78 1014.1
20260508111505 55 0 0.0 0.0 0.00 0.00 0.00 89 1014.0
20260508111005 47 0 0.0 0.0 0.00 0.00 0.00 92 1013.9
20260508110504 45 0 0.0 0.0 0.00 0.00 0.00 90 1013.8
20260508110004 44 0 0.0 0.0 0.00 0.00 0.00 90 1013.8
20260508105504 44 0 0.0 0.0 0.00 0.00 0.00 90 1013.6
20260508105005 44 0 0.0 0.0 0.00 0.00 0.00 90 1013.6
20260508104504 43 0 0.0 0.0 0.00 0.00 0.00 89 1013.6
20260508104005 43 0 0.0 0.0 0.00 0.00 0.00 89 1013.6
20260508103504 43 0 0.0 0.0 0.00 0.00 0.00 88 1013.6
20260508103004 42 0 0.0 0.0 0.00 0.00 0.00 87 1013.6
20260508102505 42 0 0.0 0.0 0.00 0.00 0.00 87 1013.5
20260508102005 42 0 0.0 0.0 0.00 0.00 0.00 87 1013.4
20260508101506 43 0 0.0 0.0 0.00 0.00 0.00 87 1013.3
20260508100505 43 0 0.0 0.0 0.00 0.00 0.00 86 1013.1
20260508100004 44 0 0.0 0.0 0.00 0.00 0.00 86 1013.0
20260508095504 44 0 0.0 0.0 0.00 0.00 0.00 86 1013.0
20260508095004 44 0 0.0 0.0 0.00 0.00 0.00 86 1013.0
20260508094505 44 0 0.0 0.0 0.00 0.00 0.00 85 1012.9
20260508093504 45 0 0.0 0.0 0.00 0.00 0.00 83 1012.8
20260508093005 46 0 0.0 0.0 0.00 0.00 0.00 83 1012.6
20260508092004 47 0 0.0 0.0 0.00 0.00 0.00 83 1012.7
20260508091504 47 0 0.0 0.0 0.00 0.00 0.00 83 1012.6
20260508091005 48 0 0.0 0.0 0.00 0.00 0.00 83 1012.6
20260508090505 48 0 0.0 0.0 0.00 0.00 0.00 83 1012.4
20260508090004 48 0 0.0 3.0 0.00 0.00 0.00 83 1012.3
20260508085504 48 0 2.0 7.0 0.00 0.00 0.00 83 1012.2
20260508084505 49 0 0.0 6.0 0.00 0.00 0.00 83 1012.1
20260508084005 49 352 0.0 10.0 0.00 0.00 0.00 84 1012.1
20260508083505 49 345 1.0 2.0 0.00 0.00 0.00 85 1012.1
20260508083005 49 0 1.0 8.0 0.00 0.00 0.00 86 1011.7
20260508082505 49 353 2.0 15.0 0.00 0.00 0.00 87 1011.5
20260508082004 49 354 1.0 8.0 0.00 0.00 0.00 88 1011.6
20260508080004 48 338 1.0 6.0 0.00 0.00 0.00 92 1011.2
20260508075505 48 22 0.0 0.0 0.00 0.00 0.00 92 1011.1
20260508075005 48 22 0.0 0.0 0.00 0.00 0.00 92 1011.0
20260508074004 48 68 0.0 0.0 0.00 0.00 0.00 92 1010.9
20260508073004 49 270 0.0 0.0 0.00 0.00 0.00 92 1010.5
20260508072504 49 270 0.0 0.0 0.00 0.00 0.00 92 1010.4
20260508072004 49 270 0.0 0.0 0.00 0.00 0.00 92 1010.4
20260508071504 49 270 0.0 0.0 0.00 0.00 0.00 91 1010.2
20260508070504 49 270 0.0 0.0 0.00 0.00 0.00 91 1010.2
20260508070005 49 270 0.0 0.0 0.00 0.00 0.00 91 1010.2
20260508065504 49 270 0.0 0.0 0.00 0.00 0.00 90 1010.1
20260508065005 49 270 0.0 0.0 0.00 0.00 0.00 90 1010.0
20260508064505 50 270 0.0 0.0 0.00 0.00 0.00 90 1010.0
20260508064004 50 270 0.0 0.0 0.00 0.00 0.00 91 1009.9
20260508063505 50 270 0.0 0.0 0.00 0.00 0.00 91 1009.8
20260508063005 50 293 0.0 0.0 0.00 0.00 0.00 91 1009.9
20260508062504 49 22 0.0 0.0 0.00 0.00 0.00 91 1009.8
20260508062004 49 22 0.0 0.0 0.00 0.00 0.00 90 1009.7
20260508061505 49 202 0.0 0.0 0.00 0.00 0.00 90 1009.6
20260508061004 49 202 0.0 0.0 0.00 0.00 0.00 90 1009.8
20260508060505 49 202 0.0 0.0 0.00 0.00 0.00 90 1009.7
20260508060005 48 202 0.0 0.0 0.00 0.00 0.00 90 1009.7
20260508055504 48 202 0.0 0.0 0.00 0.00 0.00 90 1009.7
20260508055004 48 202 0.0 0.0 0.00 0.00 0.00 89 1009.8
20260508054504 48 202 0.0 0.0 0.00 0.00 0.00 89 1009.8
20260508054004 48 202 0.0 0.0 0.00 0.00 0.00 89 1009.8
20260508053503 48 202 0.0 0.0 0.00 0.00 0.00 89 1009.8
20260508053004 48 202 0.0 0.0 0.00 0.00 0.00 89 1009.9
20260508052504 48 202 0.0 0.0 0.00 0.00 0.00 88 1009.9
20260508052004 48 202 0.0 0.0 0.00 0.00 0.00 89 1009.9
20260508051504 48 202 0.0 0.0 0.00 0.00 0.00 89 1009.9
20260508051005 48 202 0.0 0.0 0.00 0.00 0.00 89 1009.9
20260508050505 48 202 0.0 0.0 0.00 0.00 0.00 89 1009.9
20260508050004 48 202 0.0 0.0 0.00 0.00 0.00 89 1010.0
20260508045004 48 202 0.0 0.0 0.00 0.00 0.00 89 1009.9
20260508044504 48 202 0.0 0.0 0.00 0.00 0.00 89 1009.8
20260508044005 48 202 0.0 0.0 0.00 0.00 0.00 89 1009.6
20260508042504 48 202 0.0 0.0 0.00 0.00 0.00 89 1009.7
20260508042004 48 202 0.0 0.0 0.00 0.00 0.00 89 1009.7
20260508041505 48 202 0.0 0.0 0.00 0.00 0.00 89 1009.7
20260508041005 48 202 0.0 0.0 0.00 0.00 0.00 89 1009.7
20260508040504 48 202 0.0 0.0 0.00 0.00 0.00 89 1009.7
20260508040005 48 202 0.0 0.0 0.00 0.00 0.00 89 1009.7
20260508035005 49 225 0.0 0.0 0.00 0.00 0.00 88 1009.8
20260508034504 49 225 0.0 0.0 0.00 0.00 0.00 88 1009.8
20260508033004 50 211 0.0 0.0 0.00 0.00 0.00 88 1009.8
20260508031505 50 202 0.0 0.0 0.00 0.00 0.00 88 1009.6
20260508031004 50 218 0.0 2.0 0.00 0.00 0.00 88 1009.7
20260508030505 51 222 0.0 3.0 0.00 0.00 0.00 88 1009.7
20260508030004 51 214 0.0 3.0 0.00 0.00 0.00 88 1009.7
20260508025504 51 202 0.0 0.0 0.00 0.00 0.00 88 1009.9
20260508025004 51 202 0.0 0.0 0.00 0.00 0.00 88 1009.8
20260508024504 51 202 1.0 5.0 0.00 0.00 0.00 88 1009.8
20260508024004 52 212 0.0 3.0 0.00 0.00 0.00 89 1009.9
20260508023004 52 209 3.0 8.0 0.00 0.00 0.00 89 1009.7
20260508022504 52 212 3.0 8.0 0.00 0.00 0.00 89 1009.8
20260508022004 52 225 0.0 6.0 0.00 0.00 0.00 89 1009.8
20260508021504 52 206 3.0 6.0 0.00 0.00 0.00 89 1009.9
20260508021009 52 225 2.0 6.0 0.00 0.00 0.00 89 1009.5
20260508020504 52 216 0.0 3.0 0.00 0.00 0.00 88 1009.6
20260508020004 52 184 1.0 6.0 0.00 0.00 0.00 87 1009.6
20260508015504 52 202 0.0 0.0 0.00 0.00 0.00 87 1009.6
20260508015004 52 188 0.0 3.0 0.00 0.00 0.00 86 1009.5
20260508014504 52 200 0.0 0.0 0.00 0.00 0.00 86 1009.5
20260508014004 52 202 0.0 0.0 0.00 0.00 0.00 85 1009.3
20260508013005 52 202 0.0 0.0 0.00 0.00 0.00 83 1009.2
20260508012004 53 202 0.0 0.0 0.00 0.00 0.00 83 1009.1
20260508011504 53 202 0.0 5.0 0.00 0.00 0.00 82 1009.0
20260508011005 53 180 0.0 0.0 0.00 0.00 0.00 82 1008.9
20260508010504 53 202 0.0 0.0 0.00 0.00 0.00 81 1009.0
20260508010004 54 194 2.0 8.0 0.00 0.00 0.00 81 1009.0
20260508005003 54 196 1.0 6.0 0.00 0.00 0.00 80 1008.9
20260508004004 54 220 0.0 0.0 0.00 0.00 0.00 78 1009.0
20260508003504 55 214 1.0 9.0 0.00 0.00 0.00 76 1008.9
20260508003004 55 225 1.0 5.0 0.00 0.00 0.00 75 1008.7
20260508002504 55 217 1.0 8.0 0.00 0.00 0.00 74 1008.7
20260508002005 56 225 0.0 9.0 0.00 0.00 0.00 73 1008.6
20260508001504 56 209 2.0 7.0 0.00 0.00 0.00 71 1008.5
20260508001006 57 199 3.0 9.0 0.00 0.00 0.00 69 1008.4
20260508000505 57 202 0.0 9.0 0.00 0.00 0.00 68 1008.4
20260508000005 58 214 5.0 8.0 0.00 0.00 0.00 67 1008.4
20260507235005 59 187 0.0 8.0 0.00 0.00 0.00 64 1008.2
20260507234505 59 212 3.0 12.0 0.00 0.00 0.00 64 1008.2
20260507234005 60 193 1.0 8.0 0.00 0.00 0.00 62 1008.0
20260507233505 60 209 0.0 2.0 0.00 0.00 0.00 61 1007.9
20260507233005 60 215 0.0 0.0 0.00 0.00 0.00 60 1008.0
20260507232505 61 180 0.0 0.0 0.00 0.00 0.00 59 1007.9
20260507232005 61 180 0.0 0.0 0.00 0.00 0.00 59 1007.8
20260507231506 61 180 0.0 0.0 0.00 0.00 0.00 58 1007.8
20260507230506 62 202 0.0 6.0 0.00 0.00 0.00 56 1007.7
20260507225506 63 225 0.0 0.0 0.00 0.00 0.00 52 1007.5
20260507225005 63 320 0.0 0.0 0.00 0.00 0.00 49 1007.6
20260507224005 64 340 0.0 0.0 0.00 0.00 0.00 48 1007.5
20260507223505 64 338 0.0 0.0 0.00 0.00 0.00 48 1007.5
20260507222506 64 338 0.0 0.0 0.00 0.00 0.00 47 1007.5
20260507222005 65 338 0.0 0.0 0.00 0.00 0.00 47 1007.6
20260507221505 65 338 0.0 0.0 0.00 0.00 0.00 46 1007.7
20260507221006 65 350 0.0 3.0 0.00 0.00 0.00 45 1007.8
20260507220506 66 338 2.0 9.0 0.00 0.00 0.00 45 1007.6
20260507220004 67 338 1.0 8.0 0.00 0.00 0.00 44 1007.8
20260507215505 68 338 5.0 13.0 0.00 0.00 0.00 44 1008.0
20260507215005 69 0 0.0 0.0 0.00 0.00 0.00 45 1007.9
20260507214506 69 0 0.0 0.0 0.00 0.00 0.00 44 1007.9
20260507213505 69 338 0.0 0.0 0.00 0.00 0.00 46 1007.9
20260507213005 69 338 0.0 9.0 0.00 0.00 0.00 44 1007.9
20260507212505 69 0 1.0 5.0 0.00 0.00 0.00 44 1007.6
20260507212005 70 12 1.0 5.0 0.00 0.00 0.00 45 1007.3
20260507211005 70 338 0.0 0.0 0.00 0.00 0.00 46 1007.8
20260507210505 70 292 0.0 0.0 0.00 0.00 0.00 47 1007.7
20260507205505 70 180 3.0 12.0 0.00 0.00 0.00 47 1007.6
20260507204505 70 207 0.0 5.0 0.00 0.00 0.00 49 1007.4
20260507204005 69 338 0.0 0.0 0.00 0.00 0.00 52 1007.5
20260507203505 68 338 0.0 0.0 0.00 0.00 0.00 51 1007.5
20260507203005 68 338 0.0 0.0 0.00 0.00 0.00 49 1007.4
20260507202506 69 338 0.0 0.0 0.00 0.00 0.00 51 1007.6
20260507202005 69 338 0.0 0.0 0.00 0.00 0.00 49 1007.6
20260507201506 70 225 0.0 0.0 0.00 0.00 0.00 48 1007.7
20260507201005 70 195 0.0 0.0 0.00 0.00 0.00 49 1007.8
20260507200505 70 207 1.0 3.0 0.00 0.00 0.00 49 1007.8
20260507200004 70 90 0.0 0.0 0.00 0.00 0.00 51 1007.8
20260507195505 69 90 0.0 0.0 0.00 0.00 0.00 50 1007.7
20260507195006 69 90 0.0 0.0 0.00 0.00 0.00 49 1008.1
20260507194504 69 58 0.0 0.0 0.00 0.00 0.00 49 1008.1
20260507194006 70 34 0.0 0.0 0.00 0.00 0.00 48 1008.1
20260507193505 69 135 0.0 0.0 0.00 0.00 0.00 49 1008.0
20260507193005 70 135 0.0 0.0 0.00 0.00 0.00 49 1008.3
20260507192505 70 153 0.0 5.0 0.00 0.00 0.00 49 1008.3